EUTELSAT HOTBIRD 13B

Last updated on Mon Nov 03 2025 00:02:55 GMT+0000 (Coordinated Universal Time)

1 29270U 06032A 25306.25918718 .00000169 00000+0 00000+0 0 9992 2 29270 1.0707 84.7012 0003716 132.6536 310.8457 1.00270361 45032
UTC large
Height (km)
Speed (km/s)
/
Latitude / Longitude
Inclination (degrees)
Orbital Period (minutes)
Azimuth
Elevation
Range (km)
Doppler Factor

Next 0 passes for location: London (51.5072 / 0.1276)

Sorry there are no passes over London.